ARIANE 40 R/B, 22830

Orbit data source: Space-Track

ARIANE 40 R/B, 22830 is space debris in SSO originally from a launch on Sun, 26 Sep 1993 UTC launched from the French Guiana (FRGUI). Debris objects in space refer to the collection of defunct objects orbiting the Earth. Examples of debris include non-operational satellites, rocket bodies, and fragments generated from explosions, collisions, or faulty payload assembly.

Loading next visibility...
Identifier
22830, 1993-061H
Orbit
SSO
Country
Flag of FRFR
Related business
Manufacturer
Ae/LesM
Mission
Spacecraft
Bus & Motor
ARIANE H10, Unknown motor
Mass
1,875 kg wet, 1,820 kg dry
Launch date (UTC)
1993-09-26 (32 years ago)
Launch vehicle
Unknown
Launch site
French Guiana (FRGUI)
Object type
Payload
Rocket body
Debris
Shape & HBR
Cyl, 5.9 m
Radar Cross Section
26.751 m², Large (>1 m²)

Expand to show TLE details & history
Last TLE update: 9 hours ago

TLE from 9 hours ago
0 ARIANE 40 R/B
1 22830U 93061H   25258.20639383  .00000245  00000-0  10599-3 0  9998
2 22830  98.5186 325.3000 0011891  85.2525 275.0017 14.32710619668976
Epoch: 2025-09-15T04:57Z
TLE epoch observation values (Epoch: 2025-09-15T04:57:12.426Z)
Latitude
-0.00003°
Longitude
-103.41615°
Altitude
784.89 km
Speed
7.462 km/s
True Right ascension
21h 41m 12s
True Declination
0° 00' 00"
Sunlit
Object was in full shadow at epoch
Visualization orbit readout
Latitude
Unknown
Longitude
Unknown
Altitude
Unknown
Speed
Unknown
Apparent Right ascension
Unknown
Apparent Declination
Unknown
Sunlit
N/A
Visualization observer readout
Local Sidereal Time
06:52:12
Azimuth
Unknown
Elevation
Unknown
Doppler factor
Unknown
Orbital elements
Apogee altitude
788.329 km
Perigee altitude
771.306 km
Semi-major axis
7,157.954 km
Eccentricity
0.00119
Inclination
98.5186°
RAAN
325.3°
Arg. of periapsis
85.2525°
True anomaly
274.86594°
Mean anomaly
275.0017°
Eccentric anomaly
274.93382°
Mean motion
3.58393 °/min
Orbital period
100.45 mins
BSTAR
0.00010599
Loading maneuver chart data...
Computing Atmospheric mass density...
Loading historical data...
Loading historical data...
Loading historical data...
Loading historical data...
Loading historical data...
Loading historical data...
Loading historical data...

Documentation

Showing up to 5 results
|